This is the latest recevied weather packets stored in our database for station/object K7TSD. If no packets are shown the sender has not sent any weather packets the latest 10 day(s).
| Time | Temp. | Humidity | Pressure | Rain* | Wind** | Luminosity | Snow |
|---|---|---|---|---|---|---|---|
| 1777730613 | 15.56° C | 37% | 1015.9 hPa | 0 mm | - | 171 W/m² | - |
| 1777730309 | 15.56° C | 37% | 1015.8 hPa | 0 mm | - | 159 W/m² | - |
| 1777730006 | 15° C | 36% | 1015.8 hPa | 0 mm | - | 144 W/m² | - |
| 1777729701 | 15° C | 32% | 1016 hPa | 0 mm | - | 133 W/m² | - |
| 1777729399 | 14.44° C | 34% | 1015.7 hPa | 0 mm | - | 114 W/m² | - |
| 1777729095 | 13.89° C | 35% | 1015.7 hPa | 0 mm | - | 106 W/m² | - |
| 1777728792 | 13.89° C | 37% | 1015.6 hPa | 0 mm | - | 61 W/m² | - |
| 1777728489 | 13.33° C | 38% | 1015.6 hPa | 0 mm | - | 37 W/m² | - |
| 1777728186 | 12.22° C | 38% | 1015.4 hPa | 0 mm | - | 35 W/m² | - |
| 1777727883 | 12.22° C | 41% | 1015.7 hPa | 0 mm | - | 35 W/m² | - |
| 1777727580 | 12.22° C | 40% | 1016.1 hPa | 0 mm | - | 32 W/m² | - |
| 1777727277 | 11.67° C | 39% | 1015.8 hPa | 0 mm | - | 32 W/m² | - |
| 1777726975 | 11.67° C | 39% | 1015.7 hPa | 0 mm | - | 30 W/m² | - |
| 1777726671 | 11.11° C | 40% | 1015.8 hPa | 0 mm | - | 29 W/m² | - |
| 1777726369 | 10.56° C | 40% | 1015.8 hPa | 0 mm | - | 27 W/m² | - |
| 1777726065 | 10.56° C | 41% | 1015.7 hPa | 0 mm | - | 25 W/m² | - |
| 1777725762 | 10° C | 41% | 1015.6 hPa | 0 mm | - | 23 W/m² | - |
| 1777725460 | 10° C | 40% | 1015.7 hPa | 0 mm | - | 21 W/m² | - |
| 1777725157 | 9.44° C | 42% | 1015.4 hPa | 0 mm | - | 19 W/m² | - |
| 1777724854 | 9.44° C | 42% | 1015.8 hPa | 0 mm | - | 17 W/m² | - |
| 1777724550 | 9.44° C | 41% | 1016 hPa | 0 mm | - | 14 W/m² | - |
| 1777724248 | 8.89° C | 42% | 1015.8 hPa | 0 mm | - | 11 W/m² | - |
| 1777723946 | 8.33° C | 43% | 1015.6 hPa | 0 mm | - | 9 W/m² | - |
| 1777723642 | 8.89° C | 42% | 1015.8 hPa | 0 mm | - | 6 W/m² | - |
| 1777723339 | 9.44° C | 41% | 1015.6 hPa | 0 mm | - | 3 W/m² | - |
* Rain latest hour (hover to see other rain measurements)
** Current wind speed in m/s (hover to see current wind gust speed)